• In Hungary
  • List of Countries
  • For 7 days
  • Water Temperature
  • Satellite Maps
  • Weather Map
  • News
  • Weather Widgets
  • user-avatar
    Login

    Hourly Weather Medvezhiy

    Today, 24 June, Sunday

    Time Temperature Precipitation Wind Pressure Humidity
    00:00 +20°C° 0 mm 2 mps 739 mmHg 61%
    01:00 +20°C° 0 mm 2 mps 739 mmHg 62%
    02:00 +19°C° 0 mm 2 mps 739 mmHg 63%
    03:00 +19°C° 0 mm 3 mps 739 mmHg 62%
    04:00 +20°C° 0 mm 3 mps 739 mmHg 63%
    05:00 +20°C° 0 mm 3 mps 739 mmHg 65%
    06:00 +21°C° 0 mm 3 mps 739 mmHg 66%
    07:00 +22°C° 0 mm 3 mps 739 mmHg 61%
    08:00 +25°C° 0 mm 4 mps 739 mmHg 57%
    09:00 +28°C° 0 mm 4 mps 739 mmHg 52%
    10:00 +29°C° 0 mm 4 mps 739 mmHg 49%
    11:00 +30°C° 0 mm 4 mps 740 mmHg 45%
    12:00 +32°C° 0 mm 4 mps 740 mmHg 41%
    13:00 +32°C° 0 mm 4 mps 739 mmHg 40%
    14:00 +32°C° 0 mm 4 mps 739 mmHg 39%
    15:00 +33°C° 0 mm 4 mps 739 mmHg 38%
    16:00 +33°C° 0 mm 3 mps 739 mmHg 42%
    17:00 +31°C° 0 mm 3 mps 739 mmHg 45%
    18:00 +30°C° 0 mm 3 mps 739 mmHg 49%
    19:00 +28°C° 0 mm 3 mps 739 mmHg 51%
    20:00 +27°C° 0 mm 3 mps 739 mmHg 53%
    21:00 +25°C° 0 mm 3 mps 739 mmHg 54%
    22:00 +24°C° 0 mm 2 mps 740 mmHg 61%
    23:00 +21°C° 0 mm 2 mps 740 mmHg 67%

    Tomorrow, 25 June, Monday

    Time Temperature Precipitation Wind Pressure Humidity
    00:00 +20°C° 0 mm 2 mps 740 mmHg 73%
    01:00 +21°C° 0 mm 1 mps 740 mmHg 76%
    02:00 +20°C° 0 mm 1 mps 740 mmHg 79%
    03:00 +20°C° 0 mm 1 mps 741 mmHg 81%
    04:00 +21°C° 0 mm 1 mps 741 mmHg 80%
    05:00 +22°C° 0 mm 1 mps 741 mmHg 79%
    06:00 +22°C° 0 mm 1 mps 741 mmHg 77%
    07:00 +24°C° 0 mm 1 mps 742 mmHg 72%
    08:00 +25°C° 0 mm 1 mps 742 mmHg 68%
    09:00 +27°C° 0 mm 1 mps 742 mmHg 63%
    10:00 +28°C° 0 mm 1 mps 742 mmHg 59%
    11:00 +29°C° 0 mm 1 mps 742 mmHg 55%
    12:00 +30°C° 0 mm 1 mps 742 mmHg 51%
    13:00 +31°C° 0 mm 1 mps 742 mmHg 49%
    14:00 +31°C° 0 mm 1 mps 742 mmHg 48%
    15:00 +31°C° 0 mm 2 mps 742 mmHg 47%
    16:00 +30°C° 0.2 mm 2 mps 742 mmHg 52%
    17:00 +30°C° 0.2 mm 2 mps 742 mmHg 57%
    18:00 +29°C° 0.2 mm 3 mps 742 mmHg 62%
    19:00 +27°C° 0.6 mm 3 mps 742 mmHg 70%
    20:00 +25°C° 0.6 mm 3 mps 742 mmHg 78%
    21:00 +22°C° 0.6 mm 3 mps 742 mmHg 86%
    22:00 +21°C° 0.4 mm 3 mps 742 mmHg 88%
    23:00 +21°C° 0.4 mm 3 mps 743 mmHg 90%

    Day after tomorrow, 26 June, Tuesday

    Time Temperature Precipitation Wind Pressure Humidity
    00:00 +20°C° 0.4 mm 3 mps 743 mmHg 92%
    01:00 +20°C° 0.1 mm 3 mps 743 mmHg 92%
    02:00 +20°C° 0.1 mm 3 mps 743 mmHg 93%
    03:00 +19°C° 0.1 mm 3 mps 743 mmHg 94%
    04:00 +20°C° 0 mm 3 mps 743 mmHg 91%
    05:00 +21°C° 0 mm 3 mps 743 mmHg 89%
    06:00 +21°C° 0 mm 3 mps 743 mmHg 86%
    07:00 +24°C° 0 mm 3 mps 743 mmHg 78%
    08:00 +26°C° 0 mm 3 mps 743 mmHg 70%
    09:00 +28°C° 0 mm 3 mps 743 mmHg 62%
    10:00 +29°C° 0 mm 3 mps 743 mmHg 56%
    11:00 +31°C° 0 mm 3 mps 743 mmHg 50%
    12:00 +33°C° 0 mm 3 mps 743 mmHg 44%
    13:00 +34°C° 0 mm 3 mps 742 mmHg 42%
    14:00 +34°C° 0 mm 3 mps 742 mmHg 41%
    15:00 +34°C° 0 mm 3 mps 742 mmHg 39%
    16:00 +34°C° 0 mm 3 mps 742 mmHg 43%
    17:00 +33°C° 0 mm 3 mps 742 mmHg 47%
    18:00 +32°C° 0 mm 2 mps 742 mmHg 50%
    19:00 +30°C° 0 mm 2 mps 742 mmHg 54%
    20:00 +28°C° 0 mm 3 mps 742 mmHg 57%
    21:00 +26°C° 0 mm 3 mps 742 mmHg 61%
    22:00 +25°C° 0 mm 3 mps 742 mmHg 63%
    23:00 +25°C° 0 mm 3 mps 742 mmHg 66%

    27 June, Wednesday

    Time Temperature Precipitation Wind Pressure Humidity
    00:00 +24°C° 0 mm 3 mps 742 mmHg 68%
    01:00 +22°C° 0 mm 3 mps 742 mmHg 73%
    02:00 +22°C° 0 mm 3 mps 742 mmHg 79%
    03:00 +21°C° 0 mm 3 mps 742 mmHg 84%
    04:00 +22°C° 0 mm 3 mps 742 mmHg 83%
    05:00 +22°C° 0 mm 3 mps 742 mmHg 82%
    06:00 +24°C° 0 mm 3 mps 742 mmHg 81%
    07:00 +25°C° 0.4 mm 3 mps 742 mmHg 76%
    08:00 +27°C° 0.4 mm 3 mps 743 mmHg 72%
    09:00 +28°C° 0.4 mm 3 mps 743 mmHg 67%
    10:00 +29°C° 0.6 mm 3 mps 743 mmHg 63%
    11:00 +30°C° 0.6 mm 4 mps 743 mmHg 59%
    12:00 +30°C° 0.6 mm 4 mps 742 mmHg 55%
    13:00 +30°C° 0.3 mm 4 mps 742 mmHg 55%
    14:00 +30°C° 0.3 mm 4 mps 742 mmHg 55%
    15:00 +32°C° 0.3 mm 4 mps 742 mmHg 55%
    16:00 +30°C° 0.4 mm 4 mps 742 mmHg 60%
    17:00 +29°C° 0.4 mm 4 mps 742 mmHg 65%
    18:00 +28°C° 0.4 mm 4 mps 742 mmHg 71%
    19:00 +26°C° 0 mm 4 mps 742 mmHg 75%
    20:00 +25°C° 0 mm 4 mps 742 mmHg 79%
    21:00 +24°C° 0 mm 3 mps 742 mmHg 83%
    22:00 +24°C° 0 mm 3 mps 742 mmHg 84%
    23:00 +22°C° 0 mm 3 mps 742 mmHg 86%

    28 June, Thursday

    Time Temperature Precipitation Wind Pressure Humidity
    00:00 +21°C° 0 mm 3 mps 742 mmHg 88%
    01:00 +21°C° 0.8 mm 3 mps 742 mmHg 89%
    02:00 +21°C° 0.8 mm 2 mps 742 mmHg 91%
    03:00 +20°C° 0.8 mm 2 mps 742 mmHg 92%
    04:00 +21°C° 0 mm 3 mps 742 mmHg 90%
    05:00 +21°C° 0 mm 3 mps 742 mmHg 88%
    06:00 +22°C° 0 mm 3 mps 742 mmHg 86%
    07:00 +23°C° 0 mm 4 mps 742 mmHg 80%
    08:00 +26°C° 0 mm 4 mps 742 mmHg 74%
    09:00 +27°C° 0 mm 4 mps 742 mmHg 69%
    10:00 +28°C° 0 mm 4 mps 742 mmHg 64%
    11:00 +29°C° 0 mm 4 mps 742 mmHg 59%
    12:00 +30°C° 0 mm 3 mps 742 mmHg 54%
    13:00 +30°C° 0 mm 3 mps 742 mmHg 54%
    14:00 +30°C° 0 mm 4 mps 742 mmHg 53%
    15:00 +32°C° 0 mm 4 mps 742 mmHg 52%
    16:00 +30°C° 0.1 mm 4 mps 742 mmHg 57%
    17:00 +29°C° 0.1 mm 3 mps 741 mmHg 61%
    18:00 +29°C° 0.1 mm 3 mps 741 mmHg 65%
    19:00 +27°C° 0.1 mm 3 mps 741 mmHg 69%
    20:00 +26°C° 0.1 mm 3 mps 741 mmHg 73%
    21:00 +24°C° 0.1 mm 3 mps 742 mmHg 77%
    22:00 +22°C° 0.1 mm 3 mps 741 mmHg 78%
    23:00 +21°C° 0.1 mm 3 mps 741 mmHg 80%

    29 June, Friday

    Time Temperature Precipitation Wind Pressure Humidity
    00:00 +21°C° 0.1 mm 4 mps 741 mmHg 81%
    01:00 +20°C° 0 mm 3 mps 741 mmHg 81%
    02:00 +19°C° 0 mm 3 mps 741 mmHg 81%
    03:00 +19°C° 0 mm 3 mps 741 mmHg 81%
    04:00 +19°C° 0 mm 4 mps 741 mmHg 80%
    05:00 +20°C° 0 mm 4 mps 741 mmHg 80%
    06:00 +20°C° 0 mm 4 mps 742 mmHg 79%
    07:00 +22°C° 0 mm 4 mps 742 mmHg 75%
    08:00 +23°C° 0 mm 4 mps 742 mmHg 71%
    09:00 +26°C° 0 mm 5 mps 742 mmHg 68%
    10:00 +27°C° 0 mm 5 mps 742 mmHg 63%
    11:00 +28°C° 0 mm 5 mps 742 mmHg 59%
    12:00 +29°C° 0 mm 5 mps 741 mmHg 55%
    13:00 +29°C° 0 mm 5 mps 741 mmHg 53%
    14:00 +29°C° 0 mm 5 mps 741 mmHg 50%
    15:00 +30°C° 0 mm 5 mps 741 mmHg 48%
    16:00 +29°C° 0 mm 4 mps 741 mmHg 52%
    17:00 +29°C° 0 mm 4 mps 741 mmHg 55%
    18:00 +28°C° 0 mm 3 mps 741 mmHg 58%
    19:00 +26°C° 0 mm 3 mps 741 mmHg 61%
    20:00 +25°C° 0 mm 4 mps 741 mmHg 64%
    21:00 +22°C° 0 mm 4 mps 741 mmHg 67%
    22:00 +21°C° 0 mm 4 mps 741 mmHg 68%
    23:00 +21°C° 0 mm 4 mps 741 mmHg 69%
    Show more